Probability
0 0 0 0 0 0 0 0 0 1 2 2 1 0 1 1 1 0 1 0 0 0 0 0 0 0 0 0 0 0 0 0 0 0 0 0 0 0 0 0 0 0 0
0 0 0 0 0 0 0 0 0 0 1 1 0 0 0 0 0 1 1 1 0 0 0 0 1 1 0 0 0 0 0 0 0 0 0 0 0 0 0 0 0 0 0
0 0 0 0 0 0 0 0 0 0 0 0 0 0 0 0 0 1 2 1 0 0 0 1 2 2 1 0 0 0 0 0 0 0 0 0 0 0 0 0 0 0 0
0 0 0 1 2 1 0 0 0 0 0 1 1 1 0 0 0 0 1 1 0 0 0 1 2 3 3 1 0 0 0 0 0 0 0 0 0 0 0 0 0 0 0
0 0 1 2 2 2 1 0 0 0 0 1 1 1 0 0 0 0 0 0 0 0 0 0 1 3 4 2 0 0 0 0 0 0 0 0 0 0 0 0 0 0 0
0 0 1 1 2 2 1 0 0 0 0 0 0 0 0 0 0 0 0 0 0 0 0 0 1 3 3 1 0 0 0 0 0 0 0 0 0 0 0 0 0 0 0
0 0 0 0 1 1 1 0 0 0 0 0 0 0 0 0 0 0 0 0 0 0 0 0 1 2 1 0 0 0 0 0 0 0 0 0 0 0 0 0 0 0 0
0 0 0 0 0 0 0 0 0 0 0 0 0 0 0 0 0 0 0 0 0 0 0 0 0 0 0 0 0 0 0 0 0 0 0 0 0 0 0 0 0 0 0
0 0 0 0 0 0 0 0 0 0 0 0 0 0 0 0 0 0 0 0 0 0 0 0 0 0 0 0 0 0 0 0 0 0 0 1 1 1 0 0 0 0 0
0 0 0 0 0 0 0 0 0 0 0 0 0 0 0 0 0 0 0 0 0 0 0 0 0 0 0 0 0 1 1 0 0 0 0 1 1 1 0 0 0 0 0
0 0 0 0 0 0 0 0 0 0 0 0 0 0 0 0 0 0 0 0 0 0 0 0 0 0 1 1 1 2 2 1 0 0 1 3 2 1 0 0 0 0 0
0 0 0 0 0 0 0 0 0 0 0 0 0 0 0 0 0 0 0 0 0 0 0 0 0 0 1 1 2 2 2 1 0 0 2 5 5 3 1 0 0 0 0
0 0 0 0 0 0 0 0 0 0 0 0 0 0 0 0 0 0 0 0 0 0 0 0 0 0 0 1 2 2 1 0 0 0 2 6 6 4 2 0 0 0 0
0 0 0 0 0 0 0 0 0 0 0 0 0 0 0 0 0 0 0 0 0 0 0 0 0 0 0 0 2 2 1 0 0 0 2 5 6 4 2 0 0 0 0
0 0 0 0 0 0 0 0 0 0 0 0 0 0 0 0 0 0 0 0 0 0 0 0 0 0 0 0 2 2 1 0 0 0 1 4 5 4 3 1 1 0 0
0 0 0 0 0 0 0 0 0 0 0 0 0 0 0 0 0 0 0 0 0 0 0 0 0 0 0 0 1 2 1 0 1 1 1 2 3 3 3 3 2 1 0
0 0 0 0 0 0 0 0 0 0 0 0 0 0 0 0 0 0 0 0 1 0 0 0 0 0 0 0 1 2 2 2 2 2 1 1 1 2 3 3 3 2 1
0 0 0 0 0 0 0 0 0 0 0 0 0 0 0 0 0 0 0 0 0 0 0 0 0 0 0 0 0 1 2 3 3 3 2 2 2 3 2 2 3 4 3
0 0 0 0 0 0 0 0 0 0 0 0 0 0 0 0 0 0 0 0 0 0 0 0 0 0 0 0 0 0 1 3 3 3 3 3 3 3 2 1 2 3 4
0 0 0 0 0 0 0 0 0 0 0 0 0 0 0 0 0 0 0 0 0 0 0 0 0 0 0 0 0 0 1 3 3 3 3 2 2 1 1 0 1 1 2
0 0 0 0 0 0 0 0 1 1 1 1 2 1 0 0 0 0 0 0 0 0 0 0 0 0 0 0 0 1 2 3 3 2 1 1 1 0 0 0 0 0 1
0 0 1 1 1 0 0 1 2 4 4 4 4 3 2 0 0 0 0 0 0 0 0 0 0 0 0 0 0 1 2 2 1 1 0 0 0 0 0 0 0 0 0
0 0 1 1 0 0 0 1 3 6 6 6 6 5 4 2 1 0 0 0 0 0 0 0 0 0 0 0 0 0 1 1 0 0 0 0 0 0 0 0 0 0 0
0 0 1 0 0 1 1 1 3 5 6 6 6 6 6 4 2 1 0 0 0 0 0 0 0 0 0 0 0 0 0 0 0 0 0 0 0 0 0 0 0 0 0
1 1 1 0 1 2 2 3 3 4 4 5 6 6 6 5 4 2 1 0 0 0 0 1 1 1 1 0 0 0 0 0 0 0 0 0 0 0 0 0 0 0 0
2 2 1 0 1 2 3 3 3 3 4 4 4 5 6 6 4 3 2 1 0 0 0 1 2 2 1 0 0 0 0 0 0 0 0 0 0 0 0 0 0 0 0
Wind_Speed
5 8 8 8 8 8 8 8 8 8 9 9 8 8 7 7 7 7 7 6 6 6 7 7 7 7 8 8 8 9 8 8 8 8 7 7 7 7 7 6 6 6 8
6 9 9 8 8 8 7 7 8 8 8 8 8 7 7 6 7 7 7 6 6 6 7 7 8 8 8 8 8 8 7 7 6 6 6 6 7 7 7 7 8 6 8
6 9 8 8 8 7 7 7 7 8 8 8 8 8 7 7 7 7 7 7 7 7 7 7 8 8 8 8 8 8 7 6 5 4 4 3 5 8 8 8 8 7 7
7 9 8 8 7 7 7 7 8 8 8 8 8 8 8 7 7 7 7 7 7 7 7 7 8 8 8 8 8 7 6 5 4 4 2 3 5 8 8 8 8 7 8
7 10 9 8 7 7 7 7 8 8 8 8 8 8 8 7 8 7 7 7 6 7 7 8 8 9 9 9 8 7 6 5 5 4 4 5 5 8 9 9 8 8 8
7 9 9 8 8 7 7 8 7 8 7 7 8 8 9 9 8 8 7 8 7 7 7 8 9 9 9 8 8 7 6 5 4 3 5 5 5 9 10 9 8 8 7
6 8 9 9 8 8 7 7 7 7 7 8 8 8 9 9 9 8 8 8 8 8 8 8 9 8 8 8 7 7 6 6 3 4 5 5 6 10 10 10 8 8 8
6 7 10 9 8 8 7 7 7 7 7 7 8 8 8 8 9 9 9 9 9 9 8 8 8 8 8 7 7 7 7 6 6 6 6 5 9 10 10 10 9 8 8
4 5 7 8 7 8 7 7 6 6 6 6 6 6 7 7 8 8 9 9 9 9 8 8 7 7 7 6 6 7 7 8 5 4 6 5 9 11 11 10 9 9 8
4 4 4 5 6 6 6 6 6 5 4 4 5 5 5 6 6 8 8 8 8 7 7 7 6 6 6 5 5 5 6 6 5 5 4 6 11 11 11 11 10 9 9
4 3 3 4 3 4 5 6 5 5 3 3 3 4 3 2 3 5 7 8 7 7 6 5 4 4 4 3 3 3 4 3 5 4 4 9 12 12 11 10 10 10 9
4 3 3 3 3 4 4 4 2 2 2 1 2 3 2 2 3 6 7 8 7 6 4 3 2 2 1 1 2 2 2 4 4 4 5 11 11 11 10 10 9 9 9
4 4 4 3 4 4 3 3 1 1 1 1 2 3 3 3 2 3 2 3 3 3 1 1 0 0 2 2 2 3 4 4 4 4 5 11 11 11 11 10 10 10 9
4 4 3 2 4 4 4 2 2 1 1 2 2 3 2 2 1 2 1 2 2 1 1 1 1 2 3 4 4 4 5 4 4 3 5 11 11 11 11 10 10 9 9
4 4 3 3 4 4 4 2 3 3 2 2 2 2 3 2 2 2 2 2 2 2 2 2 2 3 4 4 4 5 5 5 5 4 4 10 11 11 10 9 9 9 9
4 4 4 3 4 4 4 3 3 2 2 2 2 2 3 2 2 2 2 2 2 2 2 2 3 3 3 3 4 4 4 3 4 5 4 6 10 10 10 10 9 9 9
5 5 4 3 4 4 4 3 3 2 2 2 2 2 3 2 2 2 2 2 2 2 3 3 3 3 3 3 4 4 3 3 3 4 4 3 4 8 9 9 9 9 8
5 5 5 3 4 4 3 3 2 2 2 2 2 2 3 3 4 3 3 2 3 3 2 2 2 3 3 3 2 2 2 2 3 3 3 3 3 4 6 9 8 8 8
5 5 6 4 4 4 3 3 3 3 2 2 2 3 3 3 4 3 2 2 3 2 2 2 3 2 2 2 2 2 2 2 2 3 3 3 3 4 3 5 8 8 9
5 5 6 4 3 4 3 2 2 3 2 2 2 2 3 3 3 3 2 3 3 2 2 3 2 2 1 1 2 2 2 2 2 2 3 3 3 3 3 4 3 5 9
4 4 5 5 4 4 2 2 2 2 2 2 2 3 3 3 3 3 3 3 3 2 2 3 2 2 1 1 2 2 2 2 2 2 2 2 3 3 3 4 3 3 3
4 4 5 4 4 4 2 2 2 2 2 2 2 2 2 2 2 3 3 2 2 2 2 2 2 1 1 1 1 1 1 1 1 2 2 2 3 2 3 4 4 4 3
4 3 4 4 5 4 3 2 2 2 1 2 2 1 1 2 2 2 2 2 2 2 2 2 1 2 0 1 1 1 2 1 0 1 2 2 2 2 2 3 4 4 4
5 4 5 5 5 4 4 3 2 2 2 2 2 2 2 2 2 1 2 2 2 2 2 1 1 1 1 0 1 1 1 2 2 0 1 1 2 2 2 2 3 3 4
5 4 3 4 4 4 3 3 2 2 1 2 2 2 2 2 2 2 1 1 2 2 2 1 1 1 1 0 0 0 1 1 0 2 1 0 1 0 1 2 2 2 3
5 4 3 4 4 4 3 3 3 3 2 2 2 2 1 1 1 2 2 2 2 2 2 2 1 1 1 0 0 1 1 1 0 1 1 1 1 0 1 2 2 2 2
Wind_Direction
80 86 67 58 52 47 47 49 48 48 47 48 47 47 45 43 42 42 44 55 63 72 74 73 75 75 72 70 75 79 78 78 79 80 81 83 82 80 77 77 88 89 94
89 92 75 61 55 51 49 51 52 51 49 49 49 48 52 50 47 49 50 59 70 74 76 78 76 78 78 74 75 76 77 78 77 82 87 85 84 82 78 75 85 90 92
90 98 84 64 59 55 54 56 56 54 51 49 50 49 56 57 56 57 60 67 72 72 76 78 78 78 77 73 72 71 68 66 67 77 88 94 90 83 82 83 90 93 92
87 88 80 72 64 59 58 59 61 58 55 52 52 53 57 58 58 64 68 69 73 74 77 79 79 76 74 71 69 67 63 57 52 56 66 80 89 86 85 87 89 92 89
81 90 89 82 74 67 64 61 62 59 57 56 58 57 55 61 64 70 76 74 78 76 79 81 78 76 73 69 63 55 51 44 53 54 66 72 74 83 83 83 83 86 88
89 97 104 95 85 76 70 64 61 60 59 61 64 64 61 67 71 76 78 77 81 80 83 82 79 78 74 69 61 52 44 43 45 59 71 75 76 82 82 80 79 81 84
96 105 112 108 97 86 78 71 67 64 62 63 67 68 66 69 71 77 78 77 80 81 84 83 80 79 75 67 57 46 34 30 56 68 73 75 79 83 82 80 77 79 83
93 105 118 123 114 102 91 83 74 70 67 66 70 73 73 75 75 77 77 78 81 79 81 83 80 78 74 67 57 46 37 30 58 71 75 77 84 84 82 80 77 76 79
86 101 120 133 130 121 111 102 95 87 84 84 85 85 85 84 84 83 83 84 84 82 82 83 82 81 79 69 57 51 44 39 49 63 76 78 87 86 82 79 78 74 76
95 90 105 127 135 135 133 126 119 114 113 116 112 107 102 93 93 94 93 91 91 88 86 86 88 87 85 76 61 53 51 47 60 58 65 83 86 85 82 80 79 75 76
88 89 100 102 111 123 130 127 138 139 143 148 151 147 139 114 107 101 101 105 102 101 99 100 104 101 97 88 74 63 66 76 69 62 67 88 88 85 82 81 79 77 77
102 91 89 103 107 95 86 115 137 130 136 164 108 121 125 98 93 100 110 113 115 115 115 124 143 144 136 114 113 103 77 83 77 68 77 91 91 89 85 83 80 78 78
92 78 72 74 84 86 87 87 72 75 86 68 66 79 83 87 104 110 122 126 134 139 120 138 201 87 90 82 79 87 79 78 74 66 73 89 93 91 88 84 80 77 76
93 91 76 69 83 78 78 77 80 72 62 52 50 77 79 74 75 92 104 117 109 90 80 65 56 42 52 58 66 74 83 84 86 81 74 84 87 88 89 87 83 79 76
127 121 98 69 79 89 85 66 69 64 55 54 45 55 67 74 80 81 67 74 71 70 74 63 64 52 54 49 58 65 72 78 92 89 79 82 83 82 84 85 83 80 78
137 120 102 86 79 82 90 85 81 81 73 55 61 68 71 68 69 73 73 74 68 57 57 72 78 68 67 68 66 63 66 76 88 101 99 86 81 82 83 81 83 83 80
133 122 113 99 89 81 78 80 81 81 79 58 52 57 66 55 63 75 72 71 69 62 54 55 67 70 72 69 71 70 64 69 89 96 107 111 95 81 82 81 78 81 80
134 128 119 108 103 93 86 85 80 77 66 57 50 42 54 59 59 65 65 71 73 63 60 63 59 64 62 63 59 58 63 64 79 98 100 102 107 100 85 83 81 79 76
135 130 127 120 112 105 99 98 85 86 72 65 57 44 37 56 70 73 58 66 77 71 61 71 69 68 68 72 79 63 58 63 68 74 83 90 94 105 109 95 88 79 69
126 125 127 123 118 108 95 103 95 82 70 72 68 63 43 50 68 82 76 65 65 71 59 66 71 66 65 72 89 84 68 65 63 59 67 69 72 89 97 100 98 80 72
131 131 127 131 121 103 94 95 98 101 96 76 75 72 56 55 66 80 75 72 64 74 80 78 72 70 55 67 86 84 55 63 78 73 75 71 66 67 83 87 91 94 80
138 136 131 130 120 117 121 129 133 118 114 114 86 74 70 61 60 94 98 93 86 84 81 88 87 64 28 44 96 114 96 24 21 80 87 86 74 61 66 77 80 83 89
136 137 127 126 122 128 128 103 104 112 128 110 105 92 76 83 68 74 100 103 105 107 107 106 100 96 73 332 40 93 121 151 22 18 77 86 85 75 63 66 72 70 80
147 149 140 131 133 129 129 129 141 140 135 140 141 150 140 111 104 94 107 113 117 116 124 147 128 130 119 326 331 16 87 130 133 99 348 56 99 99 95 77 75 68 72
144 139 133 130 127 122 130 146 160 133 136 141 134 137 135 126 136 128 122 136 136 131 139 127 108 129 142 172 289 5 19 28 139 130 157 319 8 91 119 111 106 95 90
132 135 136 132 123 128 150 163 167 157 147 136 138 148 150 149 162 154 162 171 156 154 153 151 163 170 179 168 319 94 106 112 308 117 134 166 168 226 133 123 124 121 113